7 * 24
多渠道服务支持
AMC-1(原GE-1)卫星由SES运营,于1996年9月8日成功发射升空。作为一颗商用通信卫星,它主要承担北美地区的电视广播、宽带网络和数据传输服务,为各类媒体运营商和企业客户提供可靠的空间通信基础设施。该卫星定点于地球静止轨道,设计服役寿命超过15年,在发射后长期稳定运行,有力推动了美洲大陆通信服务的发展,是SES AMC系列卫星中较早投入运营的重要节点。
(SES)
| 数据来源 | 国际轨道数据 | AOE轨道数据 |
| 星历时间 | 2026-06-20T14:14:12+0800 1天前 查看轨道信息 | 2026-06-21T04:00:00+0800 11小时前 查看轨道信息 |
| 半长轴 | 42381.694km | 42381.694km |
| 偏心率 | 0.0005766 | 0.0005674 |
| 轨道倾角 | 9.130° | 9.131° |
| 近地点辐角 | 233.199° | 234.424° |
| 升交点赤经 | 59.105° | 59.098° |
| 平近点角 | 122.317° | 326.526° |
| 近地点 | 35979.119km | 35979.509km |
| 远地点 | 36027.995km | 36027.605km |
| 周期 | 1447.195分钟 | 1447.195分钟 |
| 每日圈数 | 0.995028 | 0.995028 |